Location: Unspecified
(0.0000°N, 0.0000°E)
Time: 06:23:11
(UTC+00:00)

Courier 1B - Pass Details

Date: 27 September 2023
Orbit: 962 x 1208 km, 28.3° (Epoch: 06 December)

Event Time Altitude Azimuth Distance (km) Brightness Sun altitude
Rises 06:02:23 0° 210° (SSW) 3,684 10.2 2.8°
Reaches altitude 10° 06:06:36 10° 185° (S) 2,775 9.9 3.9°
Maximum altitude 06:09:51 14° 156° (SSE) 2,538 10.1 4.7°
Drops below altitude 10° 06:13:11 10° 127° (SE) 2,852 11.0 5.5°
Sets 06:17:37 0° 102° (ESE) 3,866 12.8 6.6°
